Radiation Dose at Monitoring Post of Fukushima Daini Nuclear Power Station
Date,Time,MP-1(microSv/h),MP-2(microSv/h),MP-3(microSv/h),MP-4(microSv/h),MP-5(microSv/h),MP-6(microSv/h),MP-7(microSv/h),Wind Direction,Wind Velocity(m/s),Rain
2012/12/31,00:00,1.1,0.7,1.1,1.0,1.0,0.4,0.4,north-northeast,5.9,Yes
2012/12/31,00:10,1.1,0.7,1.1,1.0,1.0,0.4,0.4,north,5.1,Yes
2012/12/31,00:20,1.1,0.7,1.1,1.0,1.0,0.4,0.4,north,5.0,Yes
2012/12/31,00:30,1.1,0.7,1.1,1.0,1.0,0.4,0.4,north,6.0,Yes
2012/12/31,00:40,1.1,0.7,1.1,1.0,1.0,0.4,0.4,north,6.0,Yes
2012/12/31,00:50,1.1,0.7,1.1,1.0,1.0,0.4,0.4,north,4.7,No
2012/12/31,01:00,1.1,0.7,1.1,1.0,1.0,0.4,0.4,north,5.0,No
2012/12/31,01:10,1.1,0.7,1.1,1.0,1.0,0.4,0.4,north,4.5,No
2012/12/31,01:20,1.1,0.7,1.1,1.0,1.0,0.4,0.4,north-northeast,3.6,Yes
2012/12/31,01:30,1.1,0.7,1.1,1.0,1.0,0.4,0.4,north,2.5,No
2012/12/31,01:40,1.1,0.7,1.1,1.0,1.0,0.4,0.4,north,3.1,No
2012/12/31,01:50,1.1,0.7,1.1,1.0,1.0,0.4,0.4,north,2.5,Yes
2012/12/31,02:00,1.1,0.7,1.1,1.0,1.0,0.4,0.4,northwest,1.7,Yes
2012/12/31,02:10,1.1,0.7,1.1,1.0,1.0,0.4,0.4,north,3.1,Yes
2012/12/31,02:20,1.1,0.7,1.1,1.0,1.0,0.4,0.4,north,5.3,Yes
2012/12/31,02:30,1.1,0.7,1.1,1.0,1.0,0.4,0.4,northwest,5.6,No
2012/12/31,02:40,1.1,0.7,1.1,1.0,1.0,0.4,0.4,northwest,5.7,No
2012/12/31,02:50,1.1,0.7,1.1,1.0,1.0,0.4,0.4,northwest,5.4,No
2012/12/31,03:00,1.1,0.7,1.1,1.0,1.0,0.4,0.4,north-northwest,5.6,No
2012/12/31,03:10,1.1,0.7,1.1,1.0,1.0,0.4,0.4,northwest,6.5,No
2012/12/31,03:20,1.1,0.7,1.1,1.0,1.0,0.4,0.4,northwest,8.2,No
2012/12/31,03:30,1.1,0.7,1.1,1.0,1.0,0.4,0.4,north-northwest,6.5,No
2012/12/31,03:40,1.1,0.7,1.1,1.0,1.0,0.4,0.4,north-northwest,7.2,No
2012/12/31,03:50,1.1,0.7,1.1,1.0,1.0,0.4,0.4,north-northwest,7.7,No
2012/12/31,04:00,1.1,0.7,1.1,1.0,1.0,0.4,0.4,north-northwest,9.8,No
2012/12/31,04:10,1.1,0.7,1.1,1.0,1.0,0.4,0.4,north-northwest,10.4,No
2012/12/31,04:20,1.1,0.7,1.1,1.0,1.0,0.4,0.4,north-northwest,10.0,No
2012/12/31,04:30,1.1,0.7,1.1,1.0,1.0,0.4,0.4,northwest,9.2,No
2012/12/31,04:40,1.1,0.7,1.1,1.0,1.0,0.4,0.4,west-northwest,8.6,No
2012/12/31,04:50,1.1,0.7,1.1,1.0,1.0,0.4,0.4,west-northwest,9.4,No
2012/12/31,05:00,1.1,0.7,1.1,1.0,1.0,0.4,0.4,northwest,8.3,No
2012/12/31,05:10,1.1,0.7,1.1,1.0,1.0,0.4,0.4,west-northwest,7.8,No
2012/12/31,05:20,1.1,0.7,1.1,1.0,1.0,0.4,0.4,northwest,8.5,No
2012/12/31,05:30,1.1,0.7,1.1,1.0,1.0,0.4,0.4,west-northwest,7.3,No
2012/12/31,05:40,1.1,0.7,1.1,1.0,1.0,0.5,0.4,northwest,6.1,No
2012/12/31,05:50,1.1,0.7,1.1,1.0,1.0,0.5,0.4,west-northwest,5.7,No
2012/12/31,06:00,1.1,0.7,1.1,1.0,1.0,0.4,0.4,northwest,5.7,No
2012/12/31,06:10,1.1,0.7,1.1,1.0,1.0,0.4,0.4,northwest,5.9,No
2012/12/31,06:20,1.1,0.7,1.1,1.0,1.0,0.4,0.4,north-northwest,6.0,No
2012/12/31,06:30,1.1,0.7,1.1,1.0,1.0,0.5,0.4,north-northwest,6.2,No
2012/12/31,06:40,1.1,0.7,1.1,1.0,1.0,0.4,0.4,north-northwest,6.0,No
2012/12/31,06:50,1.1,0.7,1.1,1.0,1.0,0.4,0.4,north-northwest,6.6,No
2012/12/31,07:00,1.1,0.7,1.1,1.0,1.0,0.5,0.4,north-northwest,6.7,No
2012/12/31,07:10,1.1,0.7,1.1,1.0,1.0,0.4,0.4,north-northwest,6.7,No
2012/12/31,07:20,1.1,0.7,1.1,1.0,1.0,0.5,0.4,north-northwest,6.8,No
2012/12/31,07:30,1.1,0.7,1.1,1.0,1.0,0.4,0.4,north-northwest,6.8,No
2012/12/31,07:40,1.1,0.7,1.1,1.0,1.0,0.4,0.4,north-northwest,7.5,No
2012/12/31,07:50,1.1,0.7,1.1,1.0,1.0,0.4,0.4,northwest,5.1,No
2012/12/31,08:00,1.1,0.7,1.1,1.0,1.0,0.5,0.4,northwest,6.4,No
2012/12/31,08:10,1.1,0.7,1.1,1.0,1.0,0.5,0.4,north-northwest,5.3,No
2012/12/31,08:20,1.1,0.7,1.1,1.0,1.0,0.5,0.4,north,4.2,No
2012/12/31,08:30,1.1,0.7,1.1,1.0,1.0,0.4,0.4,north,4.6,No
2012/12/31,08:40,1.1,0.7,1.1,1.0,1.0,0.5,0.4,north-northwest,4.8,No
2012/12/31,08:50,1.1,0.7,1.1,1.0,1.0,0.4,0.4,north-northwest,4.4,No
2012/12/31,09:00,1.1,0.7,1.1,1.0,1.0,0.4,0.4,north-northwest,3.6,No
2012/12/31,09:10,1.1,0.7,1.1,1.0,1.0,0.5,0.4,north-northwest,3.4,No
2012/12/31,09:20,1.1,0.7,1.1,1.0,1.0,0.5,0.4,north-northwest,3.5,No
2012/12/31,09:30,1.1,0.7,1.1,1.0,1.0,0.5,0.4,north,1.5,No
2012/12/31,09:40,1.1,0.7,1.1,1.0,1.0,0.5,0.4,northeast,2.4,No
2012/12/31,09:50,1.1,0.7,1.1,1.0,1.0,0.5,0.4,north-northwest,2.4,No
2012/12/31,10:00,1.1,0.7,1.1,1.0,1.0,0.5,0.4,north-northwest,2.8,No
2012/12/31,10:10,1.1,0.7,1.1,1.0,1.0,0.5,0.4,north-northwest,3.3,No
2012/12/31,10:20,1.1,0.7,1.1,1.0,1.0,0.5,0.4,north,3.1,No
2012/12/31,10:30,1.1,0.7,1.1,1.0,1.0,0.5,0.4,north,3.1,No
2012/12/31,10:40,1.1,0.7,1.1,1.0,1.0,0.5,0.4,west-northwest,1.8,No
2012/12/31,10:50,1.1,0.7,1.1,1.0,1.0,0.4,0.4,west-northwest,1.9,No
2012/12/31,11:00,1.1,0.7,1.1,1.0,1.0,0.5,0.4,west-northwest,5.0,No
2012/12/31,11:10,1.1,0.7,1.1,1.0,1.0,0.5,0.4,west-northwest,5.2,No
2012/12/31,11:20,1.1,0.7,1.1,1.0,1.0,0.5,0.4,west,5.3,No
2012/12/31,11:30,1.1,0.7,1.1,1.0,1.0,0.5,0.4,northwest,3.9,No
2012/12/31,11:40,1.1,0.7,1.1,1.0,1.0,0.5,0.4,northwest,3.7,No
2012/12/31,11:50,1.1,0.7,1.1,1.0,1.0,0.5,0.4,north-northwest,5.0,No
2012/12/31,12:00,1.1,0.7,1.1,1.0,1.0,0.5,0.4,northwest,5.0,No
2012/12/31,12:10,1.1,0.7,1.1,1.0,1.0,0.5,0.4,west-southwest,0.8,No
2012/12/31,12:20,1.1,0.7,1.1,1.0,1.0,0.5,0.4,west,1.2,No
2012/12/31,12:30,1.1,0.7,1.1,1.0,1.0,0.5,0.4,west-northwest,3.3,No
2012/12/31,12:40,1.1,0.7,1.1,1.0,1.0,0.5,0.4,west,5.9,No
2012/12/31,12:50,1.1,0.7,1.1,1.0,1.0,0.5,0.4,west-northwest,9.9,No
2012/12/31,13:00,1.1,0.7,1.1,1.0,1.0,0.5,0.4,west,9.8,No
2012/12/31,13:10,1.1,0.7,1.1,1.0,1.0,0.5,0.4,west,11.6,No
2012/12/31,13:20,1.1,0.7,1.1,1.0,1.0,0.5,0.4,west-northwest,12.2,No
2012/12/31,13:30,1.1,0.7,1.1,1.0,1.0,0.5,0.4,west,10.4,No
2012/12/31,13:40,1.1,0.7,1.1,1.0,1.0,0.5,0.4,west-northwest,10.1,No
2012/12/31,13:50,1.1,0.7,1.1,1.0,1.0,0.5,0.4,west-northwest,12.0,No
2012/12/31,14:00,1.1,0.7,1.1,1.0,1.0,0.5,0.4,west,14.6,No
2012/12/31,14:10,1.1,0.7,1.1,1.0,1.0,0.5,0.4,west-northwest,10.4,No
2012/12/31,14:20,1.1,0.7,1.1,1.0,1.0,0.5,0.4,west-northwest,11.2,No
2012/12/31,14:30,1.1,0.7,1.1,1.0,1.0,0.5,0.4,west,11.3,No
2012/12/31,14:40,1.1,0.7,1.1,1.0,1.0,0.5,0.4,west-northwest,12.6,No
2012/12/31,14:50,1.1,0.7,1.1,1.0,1.0,0.5,0.4,west-northwest,9.7,No
2012/12/31,15:00,1.1,0.7,1.1,1.0,1.0,0.5,0.4,west,6.2,No
2012/12/31,15:10,1.1,0.7,1.1,1.0,1.0,0.5,0.4,west,4.5,No
2012/12/31,15:20,1.1,0.7,1.1,1.0,1.0,0.5,0.4,west-northwest,7.5,No
2012/12/31,15:30,1.1,0.7,1.1,1.0,1.0,0.5,0.4,west,5.6,No
2012/12/31,15:40,1.1,0.7,1.1,1.0,1.0,0.5,0.4,west-northwest,11.5,No
2012/12/31,15:50,1.1,0.7,1.1,1.0,1.0,0.5,0.4,west-northwest,8.9,No
2012/12/31,16:00,1.1,0.7,1.1,1.0,1.0,0.5,0.4,west-northwest,7.7,No
2012/12/31,16:10,1.1,0.7,1.1,1.0,1.0,0.5,0.4,west-northwest,11.5,No
2012/12/31,16:20,1.1,0.7,1.1,1.0,1.0,0.5,0.4,west-northwest,13.1,No
2012/12/31,16:30,1.1,0.7,1.1,1.0,1.0,0.5,0.4,west-northwest,8.6,No
2012/12/31,16:40,1.1,0.7,1.1,1.0,1.0,0.5,0.4,west-northwest,11.6,No
2012/12/31,16:50,1.1,0.7,1.1,1.0,1.0,0.5,0.4,west-northwest,10.9,No
2012/12/31,17:00,1.1,0.7,1.1,1.0,1.0,0.5,0.4,west-northwest,10.9,No
2012/12/31,17:10,1.1,0.7,1.1,1.0,1.0,0.5,0.4,west-northwest,13.7,No
2012/12/31,17:20,1.1,0.7,1.1,1.0,1.0,0.5,0.4,west-northwest,12.3,No
2012/12/31,17:30,1.1,0.7,1.1,1.0,1.0,0.5,0.4,west-northwest,11.2,No
2012/12/31,17:40,1.1,0.7,1.1,1.0,1.0,0.5,0.4,west-northwest,7.9,No
2012/12/31,17:50,1.1,0.7,1.1,1.0,1.0,0.5,0.4,west-northwest,10.3,No
2012/12/31,18:00,1.1,0.7,1.1,1.0,1.0,0.5,0.4,west-northwest,8.7,No
2012/12/31,18:10,1.1,0.7,1.1,1.0,1.0,0.5,0.4,west-northwest,10.5,No
2012/12/31,18:20,1.1,0.7,1.1,1.0,1.0,0.5,0.4,west-northwest,12.8,No
2012/12/31,18:30,1.1,0.7,1.1,1.0,1.0,0.5,0.4,west-northwest,12.6,No
2012/12/31,18:40,1.1,0.7,1.1,1.0,1.0,0.5,0.4,west-northwest,14.5,No
2012/12/31,18:50,1.1,0.7,1.1,1.0,1.0,0.5,0.4,west-northwest,10.9,No
2012/12/31,19:00,1.1,0.7,1.1,1.0,1.0,0.5,0.4,west-northwest,12.5,No
2012/12/31,19:10,1.1,0.7,1.1,1.0,1.0,0.5,0.4,west-northwest,10.2,No
2012/12/31,19:20,1.1,0.7,1.1,1.0,1.0,0.5,0.4,west-northwest,8.9,No
2012/12/31,19:30,1.1,0.7,1.1,1.0,1.0,0.5,0.4,west-northwest,5.9,No
2012/12/31,19:40,1.1,0.7,1.1,1.0,1.0,0.5,0.4,west,6.3,No
2012/12/31,19:50,1.1,0.7,1.1,1.0,1.0,0.5,0.4,west,5.3,No
2012/12/31,20:00,1.1,0.7,1.1,1.0,1.0,0.5,0.4,west,5.8,No
2012/12/31,20:10,1.1,0.7,1.1,1.0,1.0,0.5,0.4,west,3.8,No
2012/12/31,20:20,1.1,0.7,1.1,1.0,1.0,0.5,0.4,west-northwest,2.0,No
2012/12/31,20:30,1.1,0.7,1.1,1.0,1.0,0.5,0.4,northwest,1.4,No
2012/12/31,20:40,1.1,0.7,1.1,1.0,1.0,0.5,0.4,north-northwest,1.9,No
2012/12/31,20:50,1.1,0.7,1.1,1.0,1.0,0.5,0.4,west,1.7,No
2012/12/31,21:00,1.1,0.7,1.1,1.0,1.0,0.5,0.4,southwest,1.9,No
2012/12/31,21:10,1.1,0.7,1.1,1.0,1.0,0.5,0.4,west-southwest,2.9,No
2012/12/31,21:20,1.1,0.7,1.1,1.0,1.0,0.5,0.4,west,4.5,No
2012/12/31,21:30,1.1,0.7,1.1,1.0,1.0,0.5,0.4,west,8.4,No
2012/12/31,21:40,1.1,0.7,1.1,1.0,1.0,0.5,0.4,west,7.1,No
2012/12/31,21:50,1.1,0.7,1.1,1.0,1.0,0.5,0.4,west,10.5,No
2012/12/31,22:00,1.1,0.7,1.1,1.0,1.0,0.5,0.4,west,8.3,No
2012/12/31,22:10,1.1,0.7,1.1,1.0,1.0,0.5,0.4,west,8.3,No
2012/12/31,22:20,1.1,0.7,1.1,1.0,1.0,0.5,0.4,west-northwest,8.6,No
2012/12/31,22:30,1.1,0.7,1.1,1.0,1.0,0.5,0.4,west,8.9,No
2012/12/31,22:40,1.1,0.7,1.1,1.0,1.0,0.5,0.4,west-southwest,9.2,No
2012/12/31,22:50,1.1,0.7,1.1,1.0,1.0,0.5,0.4,west,6.3,No
2012/12/31,23:00,1.1,0.7,1.1,1.0,1.0,0.5,0.4,west-northwest,5.7,No
2012/12/31,23:10,1.1,0.7,1.1,1.0,1.0,0.5,0.4,west-northwest,2.5,No
2012/12/31,23:20,1.1,0.7,1.1,1.0,1.0,0.5,0.4,-,CALM,No
2012/12/31,23:30,1.1,0.7,1.1,1.0,1.0,0.5,0.4,southwest,0.8,No
2012/12/31,23:40,1.1,0.7,1.1,1.0,1.0,0.5,0.4,west,0.9,No
2012/12/31,23:50,1.1,0.7,1.1,1.0,1.0,0.5,0.4,west-southwest,1.1,No
